Location: Ottawa
(45.4170°N, 75.7000°W)
Time: 07:52:48
(UTC-04:00)

Amateur Radio Satellites - All Passes

Search period start: 28 April 2015 07:22
Search period end: 29 April 2015 07:22
Location: Ottawa, 45.4170°N, 75.7000°W

Satellite Date Start Highest point End Downlink Frequencies (MHz)
Time Altitude Azimuth
AUBIESAT-1 28 Apr 07:39:21 07:42:33 17° 266° (W) 07:45:33 437.475
O/OREOS (USA 219) 28 Apr 07:50:27 07:54:59 77° 65° (ENE) 07:59:26 437.305
Cosmos 2499 28 Apr 07:55:28 08:00:12 17° 282° (WNW) 08:04:24 435.465 / 435.565
PRISM 28 Apr 08:13:47 08:16:02 14° 271° (W) 08:18:07 437.425
PCSat 28 Apr 08:14:19 08:19:39 64° 118° (ESE) 08:25:03 145.827
STRAND 1 28 Apr 08:27:14 08:30:54 19° 270° (W) 08:34:25 437.568
CANX-2 28 Apr 08:29:30 08:30:03 10° 85° (E) 08:30:52 2200.000
CUTE-I 28 Apr 08:31:09 08:35:57 34° 294° (WNW) 08:40:42 437.470
CUTE 1.7 + AOD 2 28 Apr 08:37:25 08:38:50 12° 86° (E) 08:40:29 437.475
Cubesat XI-IV 28 Apr 08:41:51 08:46:23 29° 296° (WNW) 08:50:50 437.490
GOMX 1 28 Apr 08:44:42 08:48:58 26° 92° (E) 08:53:29 467.674
AO-7 28 Apr 08:45:37 08:47:58 11° 324° (NW) 08:49:56 29.400- 29.500
Cosmos 2491 28 Apr 08:48:44 08:56:25 33° 65° (ENE) 09:04:15 435.465 / 435.565
DOVE 4 28 Apr 09:07:40 09:12:05 28° 93° (E) 09:16:40 437.250
BRITE-PL 28 Apr 09:10:57 09:16:05 63° 100° (E) 09:21:33 437.365/2234.400
TIGRISAT 28 Apr 09:15:47 09:17:32 12° 59° (ENE) 09:19:30 435.000
COMPASS 1 28 Apr 09:19:42 09:22:59 22° 92° (E) 09:26:19 437.405
UNISAT 6 28 Apr 09:20:45 09:23:04 14° 60° (ENE) 09:25:36 437.425
BEESAT 3 28 Apr 09:24:16 09:26:39 15° 33° (NNE) 09:29:07 437.485
HO-68 28 Apr 09:25:35 09:32:26 46° 98° (E) 09:39:17 435.675
BEESAT 2 28 Apr 09:29:22 09:31:41 15° 33° (NNE) 09:34:05 435.950
CINEMA 3 28 Apr 09:31:31 09:35:35 25° 92° (E) 09:39:45 145.822/145.860
O/OREOS (USA 219) 28 Apr 09:32:11 09:33:49 12° 261° (W) 09:35:12 437.305
UWE-3 28 Apr 09:34:29 09:35:23 11° 84° (E) 09:36:35 435.000/436.395/437.385
SEEDS 28 Apr 09:49:06 09:53:17 56° 100° (E) 09:57:27 437.485
Oscar 11 28 Apr 09:53:40 09:57:01 22° 92° (E) 10:00:26 145.826/435.025
YUBILEINY 28 Apr 09:56:47 10:04:06 32° 84° (E) 10:11:37 435.215
PCSat 28 Apr 09:59:01 10:03:33 26° 318° (NW) 10:08:02 145.827
AAUSAT CUBESAT 2 28 Apr 09:59:20 10:03:26 51° 99° (E) 10:07:30 437.432
ANTELSAT 28 Apr 10:00:51 10:04:55 32° 68° (ENE) 10:09:05 437.575/2403.000
ZACube-1 28 Apr 10:01:23 10:04:13 16° 88° (E) 10:07:13 437.345
QB50P2 28 Apr 10:01:56 10:04:31 16° 63° (ENE) 10:07:15 145.880/145.840
CANX-2 28 Apr 10:02:20 10:06:39 79° 284° (WNW) 10:10:54 2200.000
CUTE 1.7 + AOD 2 28 Apr 10:11:03 10:15:20 70° 286° (WNW) 10:19:34 437.475
NANOSAT C BR1 28 Apr 10:17:17 10:20:30 22° 66° (ENE) 10:23:50 145.865
POPSAT HIP 1 28 Apr 10:21:38 10:25:01 24° 67° (ENE) 10:28:30 437.405
GOMX 1 28 Apr 10:22:19 10:27:17 47° 289° (WNW) 10:32:26 467.674
AIST 1 28 Apr 10:29:20 10:31:00 12° 64° (ENE) 10:32:52
BUGSAT 1 28 Apr 10:31:17 10:34:16 21° 66° (ENE) 10:37:21 437.445
DX 1 28 Apr 10:32:25 10:35:25 18° 91° (E) 10:38:32 434.975-435.025
SO-50 28 Apr 10:34:14 10:37:39 21° 112° (ESE) 10:41:16 436.795
ISS 28 Apr 10:44:29 10:46:34 16° 135° (SE) 10:48:44 145.825
DOVE 4 28 Apr 10:45:07 10:49:57 42° 290° (WNW) 10:54:53 437.250
Cosmos 2491 28 Apr 10:45:15 10:53:58 63° 267° (W) 11:02:36 435.465 / 435.565
AIST 2 28 Apr 10:47:00 10:50:26 23° 39° (NE) 10:53:51 435.215
CUBEBUG 2 28 Apr 10:47:53 10:52:41 71° 100° (E) 10:57:27 437.445
TIGRISAT 28 Apr 10:49:03 10:53:36 90° 82° (E) 10:58:18 435.000
DUCHIFAT 1 28 Apr 10:49:24 10:53:24 45° 71° (ENE) 10:57:28 145.980
BRITE-PL 28 Apr 10:50:27 10:54:15 21° 296° (WNW) 10:58:05 437.365/2234.400
DELFI C3 28 Apr 10:51:20 10:55:22 67° 101° (E) 10:59:22 145.870
POLYITAN 1 28 Apr 10:51:55 10:56:01 50° 72° (ENE) 11:00:10 437.675
UNISAT 6 28 Apr 10:54:41 10:59:16 78° 258° (WSW) 11:03:58 437.425
COMPASS 1 28 Apr 10:54:56 10:58:47 35° 290° (WNW) 11:02:35 437.405
BEESAT 3 28 Apr 11:01:12 11:05:20 84° 52° (NE) 11:09:24 437.485
BEESAT 2 28 Apr 11:06:21 11:10:31 79° 52° (NE) 11:14:36 435.950
UWE-3 28 Apr 11:07:57 11:12:42 89° 260° (W) 11:17:23 435.000/436.395/437.385
CINEMA 3 28 Apr 11:08:12 11:12:58 44° 290° (WNW) 11:17:44 145.822/145.860
HUMSAT D 28 Apr 11:08:12 11:12:14 36° 96° (E) 11:16:14 437.325/437.525
QB50P1 28 Apr 11:08:36 11:12:48 75° 75° (ENE) 11:17:04 145.935-145.965
FUNcube-1 28 Apr 11:09:45 11:14:23 76° 102° (ESE) 11:18:57 145.935
UKube-1 28 Apr 11:10:35 11:14:43 42° 99° (E) 11:18:50 .
HO-68 28 Apr 11:13:30 11:20:07 40° 298° (WNW) 11:26:37 435.675
ESTCUBE 1 28 Apr 11:22:58 11:25:54 17° 90° (E) 11:28:58 437.505/2401.250
50 SAT 28 Apr 11:25:15 11:28:55 33° 96° (E) 11:32:34 437.505
SEEDS 28 Apr 11:26:04 11:28:42 16° 297° (WNW) 11:31:10 437.485
Oscar 11 28 Apr 11:29:18 11:33:22 38° 290° (WNW) 11:37:22 145.826/435.025
QB50P2 28 Apr 11:35:53 11:40:02 54° 260° (W) 11:44:14 145.880/145.840
AAUSAT CUBESAT 2 28 Apr 11:35:58 11:38:43 17° 296° (WNW) 11:41:19 437.432
ZACube-1 28 Apr 11:36:28 11:41:01 58° 287° (WNW) 11:45:31 437.345
ANTELSAT 28 Apr 11:37:39 11:41:42 30° 266° (W) 11:45:47 437.575/2403.000
CUBEBUG 1 28 Apr 11:47:24 11:51:05 26° 94° (E) 11:54:50 437.445
VELOX 1 28 Apr 11:50:15 11:54:38 56° 101° (E) 11:59:01 145.980
YUBILEINY 28 Apr 11:51:41 12:00:27 63° 284° (WNW) 12:09:11 435.215
NANOSAT C BR1 28 Apr 11:52:14 11:56:10 37° 263° (W) 12:00:07 145.865
POPSAT HIP 1 28 Apr 11:56:55 12:00:46 33° 264° (W) 12:04:38 437.405
AIST 1 28 Apr 12:04:59 12:09:15 69° 264° (W) 12:13:29
BUGSAT 1 28 Apr 12:05:50 12:09:34 36° 263° (W) 12:13:19 437.445
DX 1 28 Apr 12:07:45 12:11:57 46° 289° (WNW) 12:16:08 434.975-435.025
AISAT 28 Apr 12:09:17 12:13:47 90° 285° (WNW) 12:18:15 437.250
SO-50 28 Apr 12:13:11 12:17:49 57° 311° (NW) 12:22:38 436.795
TISAT 1 28 Apr 12:16:15 12:17:37 12° 87° (E) 12:19:13 437.305
ISS 28 Apr 12:19:20 12:22:36 79° 335° (NNW) 12:25:52 145.825
AIST 2 28 Apr 12:25:09 12:29:18 52° 240° (WSW) 12:33:22 435.215
CUBEBUG 2 28 Apr 12:25:53 12:28:52 16° 298° (WNW) 12:31:41 437.445
DUCHIFAT 1 28 Apr 12:26:35 12:29:30 18° 269° (W) 12:32:19 145.980
DELFI C3 28 Apr 12:28:11 12:30:02 13° 298° (WNW) 12:31:42 145.870
POLYITAN 1 28 Apr 12:29:33 12:32:17 16° 270° (W) 12:34:53 437.675
TIGRISAT 28 Apr 12:30:32 12:31:11 10° 276° (W) 12:31:31 435.000
Cosmos 2504 28 Apr 12:34:16 12:41:39 32° 84° (E) 12:49:07 435.465 / 435.565
BEESAT 3 28 Apr 12:41:47 12:42:46 11° 250° (WSW) 12:43:31 437.485
Oscar 19 28 Apr 12:41:59 12:46:23 30° 65° (ENE) 12:50:54 437.125/150
HUMSAT D 28 Apr 12:44:18 12:47:50 24° 293° (WNW) 12:51:14 437.325/437.525
Cosmos 2491 28 Apr 12:45:45 12:49:10 12° 287° (WNW) 12:51:57 435.465 / 435.565
UWE-3 28 Apr 12:46:30 12:48:34 13° 300° (WNW) 12:50:25 435.000/436.395/437.385
BEESAT 2 28 Apr 12:46:35 12:48:04 11° 250° (WSW) 12:49:21 435.950
UKube-1 28 Apr 12:47:18 12:50:37 21° 295° (WNW) 12:53:51 .
FUNcube-1 28 Apr 12:47:39 12:50:10 14° 299° (WNW) 12:52:28 145.935
QB50P1 28 Apr 12:48:09 12:49:18 11° 274° (W) 12:50:13 145.935-145.965
RS-15 28 Apr 12:49:19 12:56:42 23° 102° (ESE) 13:04:43 29.354- 29.394
SPROUT 28 Apr 12:56:09 13:00:14 39° 97° (E) 13:04:19 437.525
ESTCUBE 1 28 Apr 12:58:45 13:03:08 51° 288° (WNW) 13:07:28 437.505/2401.250
50 SAT 28 Apr 13:00:21 13:03:35 23° 293° (WNW) 13:06:42 437.505
CUBEBUG 1 28 Apr 13:23:35 13:27:30 32° 291° (WNW) 13:31:22 437.445
ITAMSAT 1 28 Apr 13:23:48 13:27:50 24° 63° (ENE) 13:31:58 435.822/435.867
VELOX 1 28 Apr 13:27:51 13:30:49 17° 297° (WNW) 13:33:40 145.980
ITUPSAT 1 28 Apr 13:45:27 13:48:34 18° 90° (E) 13:51:50 437.325
AISAT 28 Apr 13:48:08 13:49:45 12° 301° (WNW) 13:51:09 437.250
TISAT 1 28 Apr 13:49:43 13:53:59 71° 286° (WNW) 13:58:13 437.305
YUBILEINY 28 Apr 13:54:51 13:59:37 15° 310° (NW) 14:03:54 435.215
ISS 28 Apr 13:56:23 13:59:17 28° 351° (N) 14:02:11 145.825
SO-50 28 Apr 13:56:40 13:59:27 15° 333° (NNW) 14:02:12 436.795
JAS-2 28 Apr 14:02:49 14:06:46 16° 53° (NE) 14:10:56 435.910
AO-7 28 Apr 14:08:15 14:14:10 23° 49° (NE) 14:20:20 29.400- 29.500
Gurwin Techsat 1B 28 Apr 14:10:06 14:15:12 51° 70° (ENE) 14:20:22 435.225
BEESAT 28 Apr 14:13:30 14:17:47 33° 96° (E) 14:22:05 436.000
SWISSCUBE 28 Apr 14:16:27 14:20:53 38° 97° (E) 14:25:19 437.505
Oscar 19 28 Apr 14:20:48 14:25:38 39° 263° (W) 14:30:29 437.125/150
Cosmos 2504 28 Apr 14:25:48 14:34:38 64° 284° (WNW) 14:43:15 435.465 / 435.565
SPROUT 28 Apr 14:32:44 14:36:07 22° 294° (WNW) 14:39:25 437.525
HORYU 2 28 Apr 14:42:34 14:45:54 21° 64° (ENE) 14:49:20 437.375
KKS-1 28 Apr 14:56:33 14:59:30 18° 90° (E) 15:02:35 437.445
RS-15 28 Apr 14:56:40 15:07:34 85° 123° (ESE) 15:18:48 29.354- 29.394
ITAMSAT 1 28 Apr 15:02:02 15:07:04 50° 260° (W) 15:12:07 435.822/435.867
PCSat 28 Apr 15:17:30 15:21:12 19° 35° (NE) 15:25:01 145.827
VERMONT LUNAR 28 Apr 15:17:36 15:18:41 11° 152° (SSE) 15:19:49 437.305
ITUPSAT 1 28 Apr 15:22:13 15:26:53 56° 288° (WNW) 15:31:32 437.325
ISS 28 Apr 15:33:16 15:36:13 31° 11° (NNE) 15:39:11 145.825
STARS 28 Apr 15:42:50 15:46:51 32° 96° (E) 15:50:54 437.465
JAS-2 28 Apr 15:42:59 15:50:41 63° 71° (ENE) 15:58:00 435.910
Gurwin Techsat 1B 28 Apr 15:51:16 15:55:31 23° 269° (W) 15:59:40 435.225
BEESAT 28 Apr 15:51:25 15:55:35 30° 293° (WNW) 15:59:42 436.000
SWISSCUBE 28 Apr 15:54:36 15:58:37 27° 294° (WNW) 16:02:31 437.505
AO-7 28 Apr 15:57:40 16:05:58 84° 69° (ENE) 16:14:18 29.400- 29.500
GONETS M04 28 Apr 16:14:57 16:23:17 52° 90° (E) 16:31:45
PHONESAT 2.4 28 Apr 16:17:09 16:18:35 12° 152° (SSE) 16:20:05 2401.200-2431.200
HORYU 2 28 Apr 16:17:57 16:22:16 46° 261° (W) 16:26:38 437.375
Cosmos 2504 28 Apr 16:25:06 16:30:09 15° 308° (NW) 16:34:40 435.465 / 435.565
KKS-1 28 Apr 16:32:07 16:36:29 51° 288° (WNW) 16:40:50 437.445
CUTE-I 28 Apr 16:39:22 16:41:02 12° 55° (NE) 16:42:58 437.470
Cubesat XI-IV 28 Apr 16:48:51 16:51:30 14° 57° (ENE) 16:54:23 437.490
CUSAT 1 28 Apr 16:49:20 16:52:58 34° 89° (E) 16:57:46 437.405
Cosmos 2499 28 Apr 16:49:50 16:54:08 15° 76° (ENE) 16:58:53 435.465 / 435.565
VERMONT LUNAR 28 Apr 16:52:34 16:55:31 28° 168° (SSE) 16:58:29 437.305
PCSat 28 Apr 17:00:05 17:05:33 81° 56° (ENE) 17:10:59 145.827
ISS 28 Apr 17:09:34 17:12:50 80° 208° (SSW) 17:16:05 145.825
RS-15 28 Apr 17:11:15 17:21:23 39° 332° (NNW) 17:31:45 29.354- 29.394
STARS 28 Apr 17:19:25 17:23:15 28° 293° (WNW) 17:26:59 437.465
MOZHAYETS 4 28 Apr 17:21:47 17:26:07 41° 97° (E) 17:30:27
SO-50 28 Apr 17:23:08 17:25:01 12° 22° (NNE) 17:27:02 436.795
JAS-2 28 Apr 17:29:14 17:36:07 31° 269° (W) 17:42:34 435.910
DANDE 28 Apr 17:49:38 17:53:21 80° 280° (W) 17:58:26 436.750
PHONESAT 2.4 28 Apr 17:53:01 17:56:11 30° 168° (SSE) 17:59:23 2401.200-2431.200
AO-7 28 Apr 17:53:33 17:59:52 23° 271° (W) 18:05:52 29.400- 29.500
GONETS M04 28 Apr 18:12:17 18:20:27 40° 292° (WNW) 18:28:35
CUTE-I 28 Apr 18:15:00 18:20:16 71° 73° (ENE) 18:25:36 437.470
HO-68 28 Apr 18:16:18 18:16:57 10° 43° (NE) 18:17:59 435.675
Cubesat XI-IV 28 Apr 18:25:35 18:30:55 87° 75° (ENE) 18:36:17 437.490
VERMONT LUNAR 28 Apr 18:29:28 18:32:35 34° 185° (S) 18:35:42 437.305
CUSAT 1 28 Apr 18:32:18 18:35:55 25° 298° (WNW) 18:40:23 437.405
Cosmos 2499 28 Apr 18:37:16 18:46:04 72° 95° (E) 18:54:33 435.465 / 435.565
M-CUBED/EXP-1 PRIME 28 Apr 18:39:10 18:41:17 14° 93° (E) 18:43:28 437.505
PCSat 28 Apr 18:45:03 18:48:22 16° 254° (WSW) 18:51:27 145.827
ISS 28 Apr 18:47:19 18:48:45 12° 227° (SW) 18:50:05 145.825
STRAND 1 28 Apr 18:55:45 18:58:50 16° 89° (E) 19:02:07 437.568
MOZHAYETS 4 28 Apr 18:59:29 19:03:10 23° 294° (WNW) 19:06:43
SO-50 28 Apr 19:02:19 19:06:59 39° 44° (NE) 19:11:38 436.795
CUBESAT XI-V 28 Apr 19:07:20 19:11:43 42° 97° (E) 19:16:07 437.345
AUBIESAT-1 28 Apr 19:17:19 19:20:59 31° 100° (E) 19:24:23 437.475
CANX-2 28 Apr 19:24:39 19:26:02 12° 61° (ENE) 19:27:37 2200.000
RS-15 28 Apr 19:28:31 19:37:49 29° 5° (N) 19:47:29 29.354- 29.394
PHONESAT 2.4 28 Apr 19:30:42 19:34:02 36° 185° (S) 19:37:22 2401.200-2431.200
CUTE 1.7 + AOD 2 28 Apr 19:32:47 19:34:36 13° 62° (ENE) 19:36:37 437.475
PRISM 28 Apr 19:51:36 19:55:42 70° 101° (ESE) 19:59:47 437.425
GOMX 1 28 Apr 19:55:45 19:59:24 28° 67° (ENE) 20:03:19 467.674
HO-68 28 Apr 19:56:20 20:03:00 44° 64° (ENE) 20:09:45 435.675
CUTE-I 28 Apr 19:57:33 20:00:59 17° 272° (W) 20:04:13 437.470
YUBILEINY 28 Apr 20:03:47 20:09:08 18° 54° (NE) 20:14:51 435.215
VERMONT LUNAR 28 Apr 20:07:06 20:09:34 19° 201° (SSW) 20:12:00 437.305
Cubesat XI-IV 28 Apr 20:09:15 20:11:51 13° 274° (W) 20:14:10 437.490
M-CUBED/EXP-1 PRIME 28 Apr 20:12:33 20:16:40 53° 294° (WNW) 20:20:23 437.505
COMPASS 1 28 Apr 20:13:19 20:16:32 22° 66° (ENE) 20:19:50 437.405
DOVE 4 28 Apr 20:15:58 20:19:47 31° 67° (ENE) 20:23:51 437.250
BRITE-PL 28 Apr 20:24:47 20:28:58 84° 76° (ENE) 20:33:25 437.365/2234.400
Cosmos 2499 28 Apr 20:32:32 20:40:03 29° 296° (WNW) 20:47:06 435.465 / 435.565
STRAND 1 28 Apr 20:33:32 20:38:38 68° 287° (WNW) 20:43:41 437.568
UWE-3 28 Apr 20:33:51 20:35:33 12° 59° (ENE) 20:37:29 435.000/436.395/437.385
CINEMA 3 28 Apr 20:35:45 20:39:26 26° 66° (ENE) 20:43:20 145.822/145.860
SO-50 28 Apr 20:43:00 20:47:31 35° 243° (WSW) 20:51:57 436.795
SEEDS 28 Apr 20:43:03 20:47:12 52° 73° (ENE) 20:51:24 437.485
CUBESAT XI-V 28 Apr 20:45:17 20:48:58 23° 294° (WNW) 20:52:32 437.345
Oscar 11 28 Apr 20:50:41 20:54:07 23° 66° (ENE) 20:57:38 145.826/435.025
AAUSAT CUBESAT 2 28 Apr 20:52:06 20:56:08 46° 72° (ENE) 21:00:13 437.432
AUBIESAT-1 28 Apr 20:52:17 20:55:40 24° 300° (WNW) 20:58:47 437.475
CANX-2 28 Apr 20:57:03 21:01:23 85° 257° (WSW) 21:05:44 2200.000
ZACube-1 28 Apr 20:59:51 21:02:43 18° 63° (ENE) 21:05:45 437.345
CUTE 1.7 + AOD 2 28 Apr 21:05:41 21:10:00 76° 258° (WSW) 21:14:20 437.475
PHONESAT 2.4 28 Apr 21:09:04 21:11:47 20° 201° (SSW) 21:14:29 2401.200-2431.200
PRISM 28 Apr 21:28:48 21:30:41 13° 299° (WNW) 21:32:25 437.425
DX 1 28 Apr 21:30:14 21:33:32 22° 65° (ENE) 21:36:56 434.975-435.025
GOMX 1 28 Apr 21:33:46 21:37:32 29° 266° (W) 21:41:28 467.674
AISAT 28 Apr 21:35:30 21:37:29 13° 60° (ENE) 21:39:38 437.250
DELFI C3 28 Apr 21:40:43 21:44:42 55° 73° (ENE) 21:48:43 145.870
RS-15 28 Apr 21:42:52 21:53:47 49° 37° (NE) 22:05:16 29.354- 29.394
HO-68 28 Apr 21:44:02 21:50:47 42° 263° (W) 21:57:32 435.675
COMPASS 1 28 Apr 21:48:02 21:52:01 38° 263° (W) 21:56:01 437.405
CUBEBUG 2 28 Apr 21:48:06 21:52:31 74° 75° (ENE) 21:57:08 437.445
Cosmos 2491 28 Apr 21:53:25 22:00:49 34° 84° (E) 22:08:27 435.465 / 435.565
DOVE 4 28 Apr 21:53:49 21:57:35 28° 267° (W) 22:01:30 437.250
YUBILEINY 28 Apr 21:59:05 22:07:53 75° 79° (E) 22:16:36 435.215
HUMSAT D 28 Apr 22:02:08 22:05:57 34° 70° (ENE) 22:09:54 437.325/437.525
O/OREOS (USA 219) 28 Apr 22:04:37 22:09:06 59° 110° (ESE) 22:13:37 437.305
UWE-3 28 Apr 22:07:00 22:11:26 86° 258° (WSW) 22:16:02 435.000/436.395/437.385
FUNcube-1 28 Apr 22:07:23 22:11:46 77° 75° (ENE) 22:16:18 145.935
UKube-1 28 Apr 22:07:26 22:11:34 47° 71° (ENE) 22:15:45 .
CINEMA 3 28 Apr 22:12:27 22:16:31 35° 265° (W) 22:20:45 145.822/145.860
50 SAT 28 Apr 22:12:46 22:16:09 27° 68° (ENE) 22:19:37 437.505
STRAND 1 28 Apr 22:15:48 22:16:59 11° 305° (NW) 22:17:54 437.568
SEEDS 28 Apr 22:20:39 22:23:23 16° 271° (W) 22:25:56 437.485
ESTCUBE 1 28 Apr 22:24:47 22:28:12 22° 65° (ENE) 22:31:42 437.505/2401.250
Oscar 11 28 Apr 22:26:03 22:30:08 37° 263° (W) 22:34:12 145.826/435.025
Cosmos 2504 28 Apr 22:26:07 22:28:38 12° 48° (NE) 22:31:35 435.465 / 435.565
AAUSAT CUBESAT 2 28 Apr 22:29:08 22:32:03 17° 270° (W) 22:34:50 437.432
ZACube-1 28 Apr 22:34:21 22:38:40 56° 261° (W) 22:43:08 437.345
TIGRISAT 28 Apr 22:39:48 22:42:50 17° 89° (E) 22:46:00 435.000
UNISAT 6 28 Apr 22:45:25 22:48:50 20° 90° (E) 22:52:21 437.425
CUBEBUG 1 28 Apr 22:45:48 22:49:31 29° 68° (ENE) 22:53:18 437.445
VELOX 1 28 Apr 22:49:52 22:54:13 66° 73° (ENE) 22:58:36 145.980
QB50P1 28 Apr 22:54:15 22:55:05 11° 86° (E) 22:56:11 145.935-145.965
DX 1 28 Apr 23:05:30 23:09:35 39° 262° (W) 23:13:40 434.975-435.025
AISAT 28 Apr 23:09:08 23:13:32 77° 257° (WSW) 23:17:58 437.250
TISAT 1 28 Apr 23:10:57 23:12:44 13° 61° (ENE) 23:14:42 437.305
DELFI C3 28 Apr 23:18:01 23:20:15 14° 271° (W) 23:22:18 145.870
QB50P2 28 Apr 23:19:39 23:22:54 21° 92° (E) 23:26:13 145.880/145.840
ANTELSAT 28 Apr 23:26:50 23:31:27 51° 99° (E) 23:35:58 437.575/2403.000
CUBEBUG 2 28 Apr 23:28:00 23:29:54 12° 275° (W) 23:31:37 437.445
NANOSAT C BR1 28 Apr 23:34:56 23:38:40 29° 95° (E) 23:42:27 145.865
HUMSAT D 28 Apr 23:38:18 23:41:49 24° 267° (W) 23:45:18 437.325/437.525
POPSAT HIP 1 28 Apr 23:39:41 23:43:33 32° 96° (E) 23:47:27 437.405
UKube-1 28 Apr 23:45:02 23:48:02 18° 269° (W) 23:50:53 .
O/OREOS (USA 219) 28 Apr 23:45:39 23:48:58 19° 310° (NW) 23:52:10 437.305
BUGSAT 1 28 Apr 23:45:46 23:49:16 26° 94° (E) 23:52:51 437.445
FUNcube-1 28 Apr 23:47:10 23:48:47 11° 275° (W) 23:50:11 145.935
50 SAT 28 Apr 23:47:26 23:50:56 27° 266° (W) 23:54:23 437.505
Cosmos 2491 28 Apr 23:48:41 23:57:17 59° 285° (WNW) 00:05:57 435.465 / 435.565
SPROUT 28 Apr 23:52:24 23:56:24 40° 70° (ENE) 00:00:26 437.525
RS-15 28 Apr 23:55:31 00:06:54 66° 242° (WSW) 00:18:43 29.354- 29.394
YUBILEINY 28 Apr 23:57:05 00:03:56 25° 279° (W) 00:10:26 435.215
ESTCUBE 1 29 Apr 00:00:32 00:04:51 43° 262° (W) 00:09:08 437.505/2401.250
DUCHIFAT 1 29 Apr 00:07:26 00:11:42 63° 101° (E) 00:15:57 145.980
POLYITAN 1 29 Apr 00:10:49 00:15:09 72° 102° (ESE) 00:19:28 437.675
TIGRISAT 29 Apr 00:15:22 00:20:00 56° 288° (WNW) 00:24:33 435.000
Cosmos 2504 29 Apr 00:16:37 00:24:30 57° 75° (ENE) 00:31:50 435.465 / 435.565
UNISAT 6 29 Apr 00:21:22 00:25:55 48° 289° (WNW) 00:30:23 437.425
CUBEBUG 1 29 Apr 00:22:06 00:25:52 28° 265° (W) 00:29:37 437.445
QB50P1 29 Apr 00:27:17 00:31:36 78° 285° (WNW) 00:35:53 145.935-145.965
VELOX 1 29 Apr 00:29:06 00:31:19 13° 272° (W) 00:33:21 145.980
AIST 1 29 Apr 00:36:26 00:40:39 62° 96° (E) 00:44:54
TISAT 1 29 Apr 00:43:50 00:48:01 72° 258° (WSW) 00:52:14 437.305
ITUPSAT 1 29 Apr 00:54:11 00:58:09 27° 66° (ENE) 01:02:12 437.325
QB50P2 29 Apr 00:54:55 00:58:58 39° 290° (WNW) 01:02:59 145.880/145.840
ANTELSAT 29 Apr 01:04:22 01:07:53 21° 296° (WNW) 01:11:16 437.575/2403.000
NANOSAT C BR1 29 Apr 01:10:46 01:14:29 29° 292° (WNW) 01:18:10 145.865
POPSAT HIP 1 29 Apr 01:15:43 01:19:20 26° 293° (WNW) 01:22:53 437.405
BUGSAT 1 29 Apr 01:21:05 01:24:46 30° 291° (WNW) 01:28:25 437.445
BEESAT 29 Apr 01:21:57 01:26:33 49° 70° (ENE) 01:31:10 436.000
SWISSCUBE 29 Apr 01:25:00 01:29:40 56° 72° (ENE) 01:34:22 437.505
SPROUT 29 Apr 01:29:26 01:32:42 20° 269° (W) 01:35:52 437.525
CUSAT 1 29 Apr 01:42:02 01:44:23 12° 50° (NE) 01:47:19 437.405
DUCHIFAT 1 29 Apr 01:44:36 01:47:05 15° 298° (WNW) 01:49:26 145.980
POLYITAN 1 29 Apr 01:48:20 01:50:34 14° 299° (WNW) 01:52:37 437.675
Cosmos 2491 29 Apr 01:52:23 01:56:40 14° 311° (NW) 02:00:26 435.465 / 435.565
KKS-1 29 Apr 01:56:54 02:00:15 22° 65° (ENE) 02:03:42 437.445
Cosmos 2504 29 Apr 02:10:43 02:17:29 31° 276° (W) 02:23:41 435.465 / 435.565
RS-15 29 Apr 02:11:00 02:17:27 16° 262° (W) 02:23:05 29.354- 29.394
AIST 1 29 Apr 02:16:36 02:18:50 13° 295° (WNW) 02:20:54
GONETS M04 29 Apr 02:22:29 02:29:52 29° 63° (ENE) 02:37:24
Gurwin Techsat 1B 29 Apr 02:25:09 02:28:26 17° 88° (E) 02:31:55 435.225
AIST 2 29 Apr 02:25:57 02:28:58 19° 113° (ESE) 02:32:06 435.215
Oscar 19 29 Apr 02:29:38 02:34:49 63° 101° (E) 02:39:58 437.125/150
ITUPSAT 1 29 Apr 02:31:27 02:35:56 38° 263° (W) 02:40:24 437.325
BEESAT 3 29 Apr 02:33:34 02:37:39 79° 124° (SE) 02:41:48 437.485
BEESAT 2 29 Apr 02:39:41 02:43:48 76° 124° (ESE) 02:47:58 435.950
STARS 29 Apr 02:41:50 02:45:52 38° 69° (ENE) 02:50:00 437.465
DANDE 29 Apr 02:42:52 02:48:43 24° 62° (ENE) 02:55:23 436.750
BEESAT 29 Apr 03:01:05 03:04:41 20° 269° (W) 03:08:12 436.000
SWISSCUBE 29 Apr 03:04:39 03:07:57 18° 270° (W) 03:11:05 437.505
ITAMSAT 1 29 Apr 03:12:27 03:17:28 48° 99° (E) 03:22:29 435.822/435.867
CUSAT 1 29 Apr 03:21:38 03:29:04 49° 71° (ENE) 03:37:07 437.405
KKS-1 29 Apr 03:32:25 03:36:39 42° 262° (W) 03:40:55 437.445
AO-7 29 Apr 03:57:41 04:03:58 24° 90° (E) 04:10:31 29.400- 29.500
AIST 2 29 Apr 04:03:03 04:07:14 52° 310° (NW) 04:11:27 435.215
Gurwin Techsat 1B 29 Apr 04:03:44 04:09:02 70° 288° (WNW) 04:14:18 435.225
HORYU 2 29 Apr 04:07:12 04:11:05 29° 95° (E) 04:15:00 437.375
Oscar 19 29 Apr 04:09:57 04:13:45 20° 299° (WNW) 04:17:24 437.125/150
BEESAT 3 29 Apr 04:13:23 04:16:13 17° 324° (NW) 04:18:57 437.485
GONETS M04 29 Apr 04:18:49 04:27:38 71° 266° (W) 04:36:21
STARS 29 Apr 04:18:57 04:22:29 23° 267° (W) 04:25:58 437.465
BEESAT 2 29 Apr 04:19:31 04:22:26 18° 324° (NW) 04:25:17 435.950
DANDE 29 Apr 04:25:08 04:32:49 88° 260° (W) 04:41:28 436.750
MOZHAYETS 4 29 Apr 04:25:37 04:30:06 50° 72° (ENE) 04:34:36
Cosmos 2499 29 Apr 04:27:19 04:33:42 28° 63° (ENE) 04:39:53 435.465 / 435.565
AUBIESAT-1 29 Apr 04:35:25 04:36:37 11° 52° (NE) 04:38:02 437.475
JAS-2 29 Apr 04:36:40 04:42:29 40° 94° (E) 04:47:43 435.910
ITAMSAT 1 29 Apr 04:52:31 04:56:44 25° 297° (WNW) 05:00:51 435.822/435.867
CUSAT 1 29 Apr 05:04:30 05:11:49 44° 268° (W) 05:19:30 437.405
M-CUBED/EXP-1 PRIME 29 Apr 05:27:39 05:31:58 34° 63° (ENE) 05:36:16 437.505
HORYU 2 29 Apr 05:43:45 05:47:46 31° 292° (WNW) 05:51:41 437.375
AIST 2 29 Apr 05:45:09 05:46:50 12° 332° (NNW) 05:48:26 435.215
Gurwin Techsat 1B 29 Apr 05:46:20 05:48:10 11° 305° (NW) 05:49:44 435.225
AO-7 29 Apr 05:49:25 05:57:46 81° 292° (WNW) 06:06:07 29.400- 29.500
MOZHAYETS 4 29 Apr 06:04:18 06:07:39 19° 270° (W) 06:10:53
AUBIESAT-1 29 Apr 06:05:53 06:10:39 67° 68° (ENE) 06:15:22 437.475
DANDE 29 Apr 06:09:48 06:15:30 21° 275° (W) 06:21:14 436.750
CUBESAT XI-V 29 Apr 06:12:45 06:17:13 52° 72° (ENE) 06:21:43 437.345
STRAND 1 29 Apr 06:13:22 06:17:44 31° 66° (ENE) 06:22:13 437.568
GONETS M04 29 Apr 06:18:26 06:22:59 15° 286° (WNW) 06:26:57
Cosmos 2499 29 Apr 06:19:57 06:27:35 63° 267° (W) 06:34:40 435.465 / 435.565
JAS-2 29 Apr 06:21:53 06:27:32 34° 297° (WNW) 06:32:32 435.910
CUTE-I 29 Apr 06:30:31 06:34:40 23° 92° (E) 06:38:56 437.470
O/OREOS (USA 219) 29 Apr 06:33:49 06:37:15 21° 51° (NE) 06:40:44 437.305
Cubesat XI-IV 29 Apr 06:41:03 06:45:37 29° 94° (E) 06:50:15 437.490
PRISM 29 Apr 06:43:37 06:47:45 69° 74° (ENE) 06:51:53 437.425
M-CUBED/EXP-1 PRIME 29 Apr 07:02:22 07:06:46 34° 259° (W) 07:11:06 437.505
